Simultaneous Nadir Overpasses (SNOs) Predictions

Prediction of SNOs between METOP-C and LANDSAT-8 Satellite Orbit:

Table of predicted SNOs for the next 14.0 days since TLE Epoch: 11/23/2019
Index Date (METOP-C) Time (METOP-C) Lat,Lon (METOP-C) SZA (METOP-C ) Date (LANDSAT-8) Time (LANDSAT-8) Lat,Lon (LANDSAT-8) SZA (LANDSAT-8 ) Distance(km) Time Diff (sec)
1 11/25/2019 18:44:33 81.16, -60.89 104.24 11/25/2019 18:45:20 81.15, -60.99 104.24 1.93 47
2 11/25/2019 19:35:12 -81.17, 106.95 75.70 11/25/2019 19:34:46 -81.17, 106.97 75.71 0.48 26
3 11/28/2019 14:18:54 81.16, 5.60 104.74 11/28/2019 14:19:34 81.16, 5.57 104.76 0.49 40
4 11/28/2019 15:09:33 -81.18, 173.43 75.19 11/28/2019 15:09:00 -81.18, 173.56 75.19 2.29 33
5 12/01/2019 09:53:15 81.16, 72.09 105.19 12/01/2019 09:53:48 81.17, 72.13 105.21 0.74 33
6 12/01/2019 10:43:53 -81.19,-119.71 74.70 12/01/2019 10:43:14 -81.19,-119.86 74.73 2.60 39
7 12/04/2019 05:27:35 81.17, 138.57 105.58 12/04/2019 05:28:01 81.17, 138.67 105.61 1.77 26
8 12/04/2019 06:18:13 -81.19, -53.22 74.31 12/04/2019 06:17:27 -81.20, -53.30 74.34 1.34 46
9 12/07/2019 01:01:57 81.16,-155.32 105.87 12/07/2019 01:02:16 81.15,-155.17 105.89 2.58 19




NCC Satellite Simultaneous Nadir Overpasses (SNOs) Prediction Service
